Meteo pe oră la Bocşa

Astăzi, 28 Ianuarie, Joi

Timp Temperatura Precipitaţii Vânt Presiune Umiditate
00:00 -1°C° 0 mm 1 m/s 739 mmHg 87%
01:00 -1°C° 0 mm 1 m/s 739 mmHg 89%
02:00 -1°C° 0 mm 1 m/s 739 mmHg 89%
03:00 -1°C° 0 mm 1 m/s 739 mmHg 90%
04:00 -1°C° 0 mm 1 m/s 739 mmHg 91%
05:00 -2°C° 0 mm 1 m/s 739 mmHg 91%
06:00 -2°C° 0 mm 1 m/s 739 mmHg 91%
07:00 -4°C° 0 mm 2 m/s 739 mmHg 91%
08:00 -3°C° 0 mm 2 m/s 739 mmHg 86%
09:00 -2°C° 0 mm 2 m/s 740 mmHg 80%
10:00 -1°C° 0 mm 2 m/s 740 mmHg 75%
11:00 -1°C° 0 mm 2 m/s 740 mmHg 74%
12:00 +1°C° 0 mm 2 m/s 739 mmHg 73%
13:00 +1°C° 0 mm 2 m/s 739 mmHg 71%
14:00 +1°C° 0 mm 2 m/s 739 mmHg 74%
15:00 +2°C° 0 mm 1 m/s 738 mmHg 76%
16:00 +2°C° 0 mm 1 m/s 738 mmHg 78%
17:00 +1°C° 0 mm 1 m/s 738 mmHg 79%
18:00 -1°C° 0 mm 2 m/s 737 mmHg 80%
19:00 -2°C° 0 mm 2 m/s 737 mmHg 81%
20:00 -2°C° 0 mm 2 m/s 737 mmHg 78%
21:00 -1°C° 0 mm 2 m/s 736 mmHg 75%
22:00 -1°C° 0 mm 2 m/s 736 mmHg 72%
23:00 -1°C° 0.1 mm 3 m/s 736 mmHg 76%

Mâine, 29 Ianuarie, Vineri

Timp Temperatura Precipitaţii Vânt Presiune Umiditate
00:00 -1°C° 0.1 mm 3 m/s 736 mmHg 80%
01:00 -1°C° 0.1 mm 3 m/s 735 mmHg 85%
02:00 -1°C° 0.9 mm 3 m/s 735 mmHg 89%
03:00 -2°C° 0.9 mm 4 m/s 734 mmHg 93%
04:00 -2°C° 0.9 mm 4 m/s 734 mmHg 97%
05:00 -2°C° 1.3 mm 4 m/s 734 mmHg 97%
06:00 -1°C° 1.3 mm 4 m/s 734 mmHg 97%
07:00 -1°C° 1.3 mm 4 m/s 734 mmHg 97%
08:00 -1°C° 0.6 mm 4 m/s 734 mmHg 96%
09:00 0°C° 0.6 mm 4 m/s 734 mmHg 96%
10:00 0°C° 0.6 mm 4 m/s 735 mmHg 95%
11:00 +1°C° 0 mm 3 m/s 734 mmHg 94%
12:00 +2°C° 0 mm 3 m/s 734 mmHg 93%
13:00 +4°C° 0 mm 2 m/s 734 mmHg 92%
14:00 +3°C° 0 mm 2 m/s 733 mmHg 92%
15:00 +3°C° 0 mm 2 m/s 733 mmHg 93%
16:00 +3°C° 0 mm 2 m/s 732 mmHg 93%
17:00 +3°C° 0 mm 2 m/s 732 mmHg 91%
18:00 +3°C° 0 mm 2 m/s 732 mmHg 89%
19:00 +3°C° 0 mm 2 m/s 732 mmHg 87%
20:00 +3°C° 0.1 mm 2 m/s 732 mmHg 87%
21:00 +3°C° 0.1 mm 2 m/s 731 mmHg 88%
22:00 +3°C° 0.1 mm 2 m/s 731 mmHg 88%
23:00 +3°C° 0.4 mm 2 m/s 731 mmHg 91%

Poimâine, 30 Ianuarie, Sâmbătă

Timp Temperatura Precipitaţii Vânt Presiune Umiditate
00:00 +4°C° 0.4 mm 1 m/s 731 mmHg 93%
01:00 +4°C° 0.4 mm 1 m/s 730 mmHg 96%
02:00 +4°C° 0.6 mm 1 m/s 730 mmHg 97%
03:00 +4°C° 0.6 mm 1 m/s 730 mmHg 98%
04:00 +4°C° 0.6 mm 1 m/s 730 mmHg 98%
05:00 +4°C° 0.2 mm 1 m/s 730 mmHg 98%
06:00 +4°C° 0.2 mm 1 m/s 730 mmHg 98%
07:00 +4°C° 0.2 mm 1 m/s 731 mmHg 98%
08:00 +5°C° 0 mm 1 m/s 731 mmHg 96%
09:00 +5°C° 0 mm 1 m/s 731 mmHg 93%
10:00 +6°C° 0 mm 1 m/s 731 mmHg 91%
11:00 +7°C° 0 mm 1 m/s 731 mmHg 88%
12:00 +7°C° 0 mm 1 m/s 731 mmHg 85%
13:00 +8°C° 0 mm 1 m/s 731 mmHg 82%
14:00 +6°C° 0 mm 2 m/s 731 mmHg 84%
15:00 +5°C° 0 mm 3 m/s 730 mmHg 86%
16:00 +4°C° 0 mm 3 m/s 730 mmHg 88%
17:00 +4°C° 0 mm 3 m/s 730 mmHg 87%
18:00 +3°C° 0 mm 3 m/s 730 mmHg 87%
19:00 +3°C° 0 mm 3 m/s 730 mmHg 86%
20:00 +3°C° 0 mm 2 m/s 730 mmHg 86%
21:00 +3°C° 0 mm 2 m/s 731 mmHg 87%
22:00 +4°C° 0 mm 1 m/s 731 mmHg 87%
23:00 +4°C° 0 mm 1 m/s 731 mmHg 87%

31 Ianuarie, Duminică

Timp Temperatura Precipitaţii Vânt Presiune Umiditate
00:00 +4°C° 0 mm 1 m/s 731 mmHg 88%
01:00 +3°C° 0 mm 1 m/s 731 mmHg 89%
02:00 +4°C° 0 mm 1 m/s 731 mmHg 89%
03:00 +4°C° 0 mm 1 m/s 731 mmHg 89%
04:00 +4°C° 0 mm 1 m/s 731 mmHg 89%
05:00 +4°C° 0 mm 1 m/s 731 mmHg 89%
06:00 +4°C° 0 mm 1 m/s 731 mmHg 88%
07:00 +4°C° 0 mm 1 m/s 731 mmHg 88%
08:00 +3°C° 0 mm 2 m/s 731 mmHg 87%
09:00 +4°C° 0 mm 2 m/s 731 mmHg 85%
10:00 +5°C° 0 mm 2 m/s 731 mmHg 83%
11:00 +6°C° 0.3 mm 2 m/s 731 mmHg 84%
12:00 +5°C° 0.3 mm 3 m/s 730 mmHg 85%
13:00 +5°C° 0.3 mm 3 m/s 730 mmHg 86%
14:00 +5°C° 0.4 mm 3 m/s 729 mmHg 87%
15:00 +4°C° 0.4 mm 3 m/s 729 mmHg 88%
16:00 +4°C° 0.4 mm 3 m/s 728 mmHg 89%
17:00 +3°C° 0.9 mm 3 m/s 728 mmHg 89%
18:00 +4°C° 0.9 mm 2 m/s 728 mmHg 90%
19:00 +4°C° 0.9 mm 2 m/s 728 mmHg 91%
20:00 +3°C° 0.8 mm 2 m/s 728 mmHg 92%
21:00 +3°C° 0.8 mm 2 m/s 728 mmHg 93%
22:00 +4°C° 0.8 mm 1 m/s 728 mmHg 93%
23:00 +3°C° 0.7 mm 1 m/s 727 mmHg 94%

1 Februarie, Luni

Timp Temperatura Precipitaţii Vânt Presiune Umiditate
00:00 +3°C° 0.7 mm 1 m/s 727 mmHg 95%
01:00 +2°C° 0.7 mm 0 m/s 727 mmHg 97%
02:00 +3°C° 0.7 mm 1 m/s 726 mmHg 97%
03:00 +3°C° 0.7 mm 1 m/s 726 mmHg 97%
04:00 +3°C° 0.7 mm 1 m/s 726 mmHg 97%
05:00 +3°C° 0.5 mm 1 m/s 726 mmHg 97%
06:00 +3°C° 0.5 mm 1 m/s 727 mmHg 97%
07:00 +3°C° 0.5 mm 1 m/s 727 mmHg 97%
08:00 +3°C° 0.1 mm 1 m/s 727 mmHg 97%
09:00 +4°C° 0.1 mm 1 m/s 728 mmHg 97%
10:00 +4°C° 0.1 mm 1 m/s 728 mmHg 96%
11:00 +4°C° 0.1 mm 1 m/s 728 mmHg 95%
12:00 +5°C° 0.1 mm 1 m/s 729 mmHg 94%
13:00 +5°C° 0.1 mm 1 m/s 729 mmHg 93%
14:00 +5°C° 0 mm 1 m/s 729 mmHg 92%
15:00 +5°C° 0 mm 1 m/s 730 mmHg 91%
16:00 +5°C° 0 mm 1 m/s 731 mmHg 91%
17:00 +5°C° 0 mm 1 m/s 731 mmHg 92%
18:00 +5°C° 0 mm 1 m/s 732 mmHg 92%
19:00 +5°C° 0 mm 1 m/s 733 mmHg 93%
20:00 +3°C° 0 mm 0 m/s 734 mmHg 93%
21:00 +3°C° 0 mm 0 m/s 734 mmHg 92%
22:00 +3°C° 0 mm 0 m/s 735 mmHg 91%
23:00 +3°C° 0 mm 0 m/s 736 mmHg 91%

2 Februarie, Marţi

Timp Temperatura Precipitaţii Vânt Presiune Umiditate
00:00 +3°C° 0 mm 0 m/s 736 mmHg 91%
01:00 +3°C° 0 mm 0 m/s 737 mmHg 90%
02:00 +4°C° 0 mm 1 m/s 737 mmHg 90%
03:00 +4°C° 0 mm 1 m/s 738 mmHg 90%
04:00 +4°C° 0 mm 1 m/s 738 mmHg 91%
05:00 +4°C° 0 mm 1 m/s 739 mmHg 92%
06:00 +4°C° 0 mm 1 m/s 740 mmHg 92%
07:00 +3°C° 0 mm 1 m/s 740 mmHg 93%
08:00 +4°C° 0 mm 1 m/s 741 mmHg 91%
09:00 +4°C° 0 mm 1 m/s 741 mmHg 88%
10:00 +5°C° 0 mm 1 m/s 742 mmHg 86%
11:00 +5°C° 0 mm 1 m/s 742 mmHg 83%
12:00 +6°C° 0 mm 1 m/s 742 mmHg 81%
13:00 +6°C° 0 mm 1 m/s 742 mmHg 79%
14:00 +6°C° 0 mm 1 m/s 742 mmHg 79%
15:00 +6°C° 0 mm 1 m/s 742 mmHg 80%
16:00 +6°C° 0 mm 1 m/s 742 mmHg 81%
17:00 +5°C° 0 mm 1 m/s 742 mmHg 83%
18:00 +5°C° 0 mm 1 m/s 742 mmHg 85%
19:00 +4°C° 0 mm 1 m/s 742 mmHg 87%
20:00 +3°C° 0 mm 2 m/s 743 mmHg 87%
21:00 +2°C° 0 mm 2 m/s 743 mmHg 87%
22:00 +2°C° 0 mm 2 m/s 743 mmHg 87%
23:00 +2°C° 0 mm 2 m/s 743 mmHg 85%
Arată mai mult

Formular de consimțământ

Meteoprog și furnizorii noștri de servicii pot stoca și accesa date personale, precum cookies, identificatori de dispozitiv sau alte tehnologii similare pe dispozitivul dumneavoastră și procesa astfel de date pentru a personaliza conținutul și reclamele, dar și pentru a oferi caracteristici de social media și pentru a analiza traficul.

  • Stocarea și/sau accesarea informațiilor pe dispozitivul dumneavoastră

    Cookies, identificatori de dispozitiv sau alte informații pot fi stocate sau accesate pe dispozitiv în scopurile indicate mai sus.

  • Reclame și conținut personalizat, evaluarea reclamelor și a conținutului, informații despre audiențe și dezvoltarea produselor

    Reclamele și conținutul pot fi personalizate pe baza unui profil. Pot fi adăugate date suplimentare pentru a personaliza mai bine reclamele și conținutul. Performanța reclamelor și conținutului poate fi măsurată. Pot fi obținute informații despre utilizatorii care au văzut reclamele și conținutul. Aceste date pot fi utilizate pentru a dezvolta sau îmbunătăți experiența utilizatorilor, sistemele și software-ul.

Dând clic pe ‘Sunt de acord’, permiteți utilizarea cookie-urilor menționate, a identificatorilor de dispozitiv, balizelor web sau altor tehnologii similare. Setările pot fi modificate din browser-ul dispozitivului dumneavoastră.

În anumite scopuri, interesele legitime pot prima asupra consimțământului. Puteți citi mai multe informații în acest sens în Politica privind Confidențialitatea Datelor și Cookie.